NOAA 5 [-]

Last updated on Fri Dec 29 2023 00:02:19 GMT+0000 (Coordinated Universal Time)

1 09057U 76077A 23361.88302889 -.00000041 00000+0 35729-4 0 9994 2 09057 102.1842 330.7760 0009427 191.6818 224.1866 12.37793337143050

Satellite not in orbit

NOAA 5 [-]